Wind_Speed
7 7 7 7 7 7 7 7 8 7 8 8 8 9 9 9 9 9 10 10 11 11 10 10 10 9 9 9 9 9 10 10 9 9 8 7 7 6 6 5 5 5 5
8 8 8 7 7 7 7 8 8 8 9 9 9 9 9 10 10 11 10 10 10 10 11 10 9 9 8 8 9 9 9 9 9 8 7 7 6 6 5 5 5 5 5
9 9 9 8 8 8 7 8 8 9 10 9 9 10 10 11 11 11 11 10 10 10 10 10 9 8 8 8 8 8 8 8 8 7 6 5 4 5 4 5 5 4 4
8 9 9 8 8 8 8 8 9 9 9 9 9 10 11 11 11 11 10 10 10 10 10 9 9 9 8 7 7 7 7 7 6 6 5 4 4 4 4 4 4 4 4
8 8 9 8 8 8 8 8 9 9 9 10 10 10 11 11 11 10 10 10 9 9 9 8 8 8 8 7 7 6 5 5 5 5 4 3 3 3 3 3 3 4 4
8 8 8 9 8 8 8 8 9 9 9 10 10 9 10 10 10 10 9 9 9 9 8 8 7 7 7 6 6 6 5 5 4 4 3 2 2 1 2 2 3 4 4
8 8 9 8 8 8 8 9 9 9 9 9 9 9 9 9 9 9 9 9 9 8 8 8 7 6 6 6 6 5 4 4 3 3 2 2 1 1 2 2 3 3 4
9 9 9 9 9 9 9 9 9 9 9 9 9 9 9 8 8 8 8 8 8 8 8 7 7 6 6 6 5 4 4 3 2 2 1 1 2 2 2 3 3 3 4
10 10 9 9 9 9 9 9 9 9 9 9 8 8 8 8 7 8 8 8 8 7 7 7 7 6 6 5 5 4 3 2 2 1 1 1 1 1 2 3 3 3 4
9 9 10 10 10 10 10 9 10 10 9 9 9 8 8 7 7 7 7 7 8 7 6 7 7 6 6 5 4 4 3 2 2 2 1 1 1 1 2 2 3 4 4
10 10 10 10 10 9 9 9 10 9 9 8 7 7 7 7 7 7 7 7 7 6 6 5 6 5 5 5 4 3 3 2 2 2 1 1 1 2 2 3 3 4 4
11 11 11 10 10 9 9 9 9 9 8 8 7 7 6 6 6 6 6 6 6 5 5 5 6 5 5 4 4 3 3 2 2 2 1 2 2 2 2 2 3 3 4
12 12 12 11 10 10 9 8 8 8 8 7 7 6 6 6 6 5 6 6 5 5 5 4 5 5 4 4 3 3 2 2 3 3 2 2 3 3 3 4 4 5 5
12 11 12 11 10 10 9 8 8 7 7 6 6 5 5 6 5 5 5 5 6 5 5 4 5 4 4 4 3 3 2 3 3 3 3 3 4 4 4 5 5 5 6
12 11 11 11 10 9 9 8 8 8 7 6 5 5 5 5 4 5 5 5 5 4 4 4 4 4 3 3 3 3 2 3 3 3 3 4 5 5 6 5 5 6 7
12 11 11 11 10 9 9 9 8 8 7 7 6 5 5 5 5 5 5 5 4 3 4 4 4 3 3 3 2 2 2 3 4 4 4 5 5 5 6 7 6 7 7
11 10 10 10 9 9 10 9 8 7 8 7 6 5 5 4 4 4 4 4 3 3 3 3 3 3 2 2 2 2 2 2 3 4 5 6 6 7 7 7 7 8 8
10 10 10 10 10 10 9 9 8 7 7 7 6 5 5 4 4 3 4 3 3 2 2 2 3 3 2 2 2 2 3 3 3 4 5 6 6 7 7 7 8 8 9
10 10 10 10 9 9 9 8 8 7 6 6 5 5 5 4 3 3 2 2 2 2 2 2 3 3 3 3 3 3 3 3 4 5 6 6 7 8 8 9 9 9 9
9 9 9 9 8 8 8 7 7 6 6 5 4 3 3 2 1 1 1 2 2 2 2 3 4 4 4 4 4 4 4 4 4 5 6 7 8 8 9 9 9 10 10
8 8 8 8 8 7 7 6 6 6 5 5 4 4 3 2 1 0 0 2 3 3 3 4 5 5 5 5 4 4 4 4 5 6 6 7 7 8 9 9 10 11 11
7 7 7 7 7 6 6 6 5 5 5 4 3 3 2 2 2 1 1 2 3 3 3 4 5 6 6 6 6 5 6 6 6 7 8 8 8 9 10 10 11 12 12
6 6 6 6 6 5 5 5 5 5 5 4 2 2 1 2 3 2 3 3 3 4 4 5 6 6 7 7 7 6 7 7 7 8 9 9 10 10 10 10 11 12 13
4 4 4 4 4 5 5 4 4 4 4 4 4 2 2 3 4 4 4 4 5 6 6 7 7 7 8 8 8 7 8 8 9 9 9 10 10 11 12 12 13 13 14
2 2 3 2 3 3 4 4 5 5 4 4 4 3 3 4 4 4 5 5 6 6 7 7 7 9 9 9 8 8 9 9 9 10 10 11 11 12 13 13 13 14 14
3 3 3 2 2 3 4 5 5 5 4 5 4 4 4 5 4 4 5 6 7 7 7 7 8 8 9 9 10 10 10 10 11 11 11 12 12 13 13 14 14 15 15
Wind_Direction
78 81 78 80 85 86 86 89 89 94 100 104 107 114 122 124 129 135 142 139 137 141 144 148 145 143 144 140 136 137 145 155 154 158 158 152 152 160 162 166 164 167 176
76 79 84 87 86 87 87 87 91 94 103 106 110 117 122 126 128 129 133 135 133 138 140 142 142 142 147 135 130 135 136 145 148 149 149 149 153 161 164 175 179 184 192
79 81 81 83 85 86 90 91 94 99 105 108 115 121 124 127 128 129 135 134 130 134 141 142 138 134 136 131 130 134 133 138 145 148 152 155 163 177 181 181 188 195 200
79 80 79 81 87 89 92 96 92 95 103 109 118 124 123 123 125 130 137 137 134 133 135 133 133 134 134 135 137 136 134 135 145 150 158 166 175 182 185 191 198 204 208
76 77 79 81 85 90 94 98 96 93 97 104 112 118 120 123 126 129 138 139 136 137 133 131 134 141 140 137 141 140 139 142 144 158 163 166 176 182 185 196 207 213 220
75 77 81 83 83 86 93 98 95 92 96 105 108 116 122 125 130 131 139 142 140 141 138 134 138 146 146 142 141 141 139 149 154 153 154 166 169 164 199 220 226 229 228
73 78 82 83 82 86 92 96 95 95 96 104 109 112 117 127 133 135 142 142 142 142 144 144 148 153 152 150 152 153 151 150 155 157 170 189 200 231 233 246 250 241 233
74 80 81 84 85 88 94 96 96 98 100 102 110 114 115 120 128 134 143 141 141 144 147 153 157 161 161 160 163 162 163 161 167 174 198 215 239 245 242 253 250 246 242
73 74 78 83 86 89 97 99 99 100 102 103 111 115 117 119 128 137 145 143 144 149 155 157 160 162 160 161 165 169 165 170 174 182 197 220 240 253 260 257 246 253 249
74 75 78 84 85 89 95 97 99 99 102 105 112 117 120 124 131 139 143 141 145 153 162 165 164 165 166 169 172 174 177 188 195 207 220 215 256 288 288 271 253 260 254
76 74 76 83 86 90 95 98 101 100 102 107 111 115 124 126 131 141 139 137 146 151 157 164 163 165 169 170 172 183 189 192 204 203 207 220 268 293 287 267 259 259 257
74 74 76 83 86 86 91 97 101 102 103 107 108 116 117 124 130 140 144 138 143 150 151 162 164 166 175 173 173 186 193 195 196 210 235 251 265 283 282 267 267 270 268
76 75 76 81 85 87 89 94 98 98 103 107 109 110 114 124 134 143 154 145 144 154 154 163 176 176 180 177 176 185 201 212 216 234 257 271 273 268 266 271 271 269 272
74 76 76 79 80 86 89 94 96 94 97 104 107 110 116 125 139 147 149 152 152 154 154 147 156 171 182 185 196 209 230 253 251 256 272 281 282 280 278 278 269 266 272
76 77 78 80 79 81 87 92 93 89 89 100 105 109 116 121 140 141 130 143 148 151 153 154 159 173 187 198 208 222 241 261 268 271 275 282 284 288 289 288 282 274 275
77 78 78 79 78 81 87 87 88 88 88 86 89 99 111 120 128 126 129 136 144 150 149 155 161 164 184 211 222 244 266 275 282 279 282 290 290 291 294 295 290 285 283
75 79 82 80 77 82 86 86 87 88 88 87 88 94 111 124 129 131 140 143 140 151 169 184 187 201 210 214 230 254 270 283 296 294 288 287 287 290 295 294 290 286 288
74 78 80 78 78 83 81 78 78 85 88 86 90 90 100 115 124 133 147 152 146 166 181 194 207 217 207 222 253 270 288 286 297 300 296 294 290 289 293 294 294 293 291
75 78 81 80 80 81 77 75 73 75 83 81 76 80 88 98 109 112 147 171 170 181 202 221 218 229 250 269 268 277 289 290 292 299 300 300 296 291 291 294 294 295 293
76 81 82 80 78 76 74 71 73 73 72 72 69 70 74 71 90 119 158 182 204 236 237 238 238 243 256 265 265 269 281 281 282 289 293 297 297 296 297 298 297 296 295
71 77 79 77 75 72 70 69 72 72 69 64 58 67 62 47 45 203 208 221 228 239 239 241 249 257 258 260 265 273 279 281 282 287 290 292 292 295 295 296 297 297 296
58 62 66 70 68 65 61 57 64 62 58 56 49 61 52 30 16 348 270 245 249 247 250 260 263 265 266 265 261 264 271 277 287 292 293 292 291 294 296 296 297 299 298
55 58 63 59 56 51 47 48 49 46 43 42 43 47 12 336 328 313 301 283 278 273 270 266 269 270 269 269 265 272 278 282 287 289 290 291 293 294 296 298 299 299 298
50 53 55 57 47 38 38 37 31 30 30 24 11 351 326 312 301 304 298 291 290 289 280 271 273 275 274 274 269 273 280 285 288 286 288 290 292 295 296 297 299 299 299
11 17 29 35 27 15 14 14 12 12 9 5 359 360 341 337 309 303 297 288 290 287 283 278 283 287 285 281 276 279 284 288 288 285 289 294 294 296 298 298 300 301 300
326 335 351 357 355 349 350 352 350 350 353 357 355 350 340 330 321 316 311 304 292 285 282 284 286 289 288 283 280 281 282 284 287 289 292 295 297 298 299 298 299 299 300
Height
5860 5860 5860 5859 5859 5859 5859 5859 5859 5859 5859 5860 5860 5861 5862 5863 5864 5866 5867 5869 5870 5871 5873 5874 5875 5877 5878 5879 5880 5880 5881 5883 5884 5886 5887 5888 5889 5890 5891 5891 5892 5893 5894
5861 5861 5860 5860 5860 5860 5860 5860 5860 5860 5861 5861 5862 5863 5864 5865 5866 5867 5869 5870 5871 5873 5874 5876 5877 5878 5880 5881 5881 5882 5883 5884 5885 5886 5888 5889 5890 5890 5891 5892 5893 5894 5894
5862 5862 5862 5861 5861 5861 5862 5862 5862 5862 5862 5863 5864 5864 5865 5866 5868 5869 5871 5872 5873 5875 5876 5878 5879 5880 5881 5882 5883 5884 5885 5885 5886 5888 5889 5890 5890 5891 5892 5893 5893 5894 5895
5863 5863 5863 5863 5863 5863 5863 5863 5863 5863 5864 5864 5865 5866 5867 5868 5869 5871 5872 5873 5875 5876 5878 5879 5880 5882 5883 5884 5885 5885 5886 5887 5888 5889 5890 5891 5891 5892 5892 5893 5894 5894 5895
5864 5864 5864 5864 5864 5864 5864 5864 5864 5865 5865 5866 5867 5867 5868 5870 5871 5872 5874 5875 5876 5878 5879 5880 5881 5883 5884 5885 5886 5887 5887 5888 5889 5890 5891 5891 5892 5892 5893 5893 5894 5894 5895
5865 5865 5865 5865 5865 5865 5865 5865 5865 5866 5867 5867 5868 5869 5870 5871 5872 5874 5875 5876 5878 5879 5880 5881 5883 5884 5885 5886 5887 5888 5888 5889 5890 5891 5892 5892 5892 5892 5893 5893 5893 5894 5894
5867 5866 5866 5866 5866 5866 5866 5867 5867 5868 5868 5869 5870 5871 5871 5873 5874 5875 5876 5877 5879 5880 5881 5882 5883 5884 5886 5887 5888 5889 5889 5890 5891 5891 5892 5892 5892 5893 5893 5893 5893 5894 5894
5868 5868 5867 5867 5867 5867 5868 5868 5869 5869 5870 5870 5871 5872 5873 5874 5875 5876 5877 5878 5880 5881 5882 5883 5884 5885 5886 5887 5888 5889 5890 5890 5891 5892 5892 5892 5893 5893 5893 5893 5893 5893 5893
5870 5869 5869 5869 5868 5869 5869 5870 5870 5871 5871 5872 5872 5873 5874 5875 5876 5877 5878 5879 5880 5881 5883 5884 5885 5886 5887 5888 5889 5890 5890 5891 5891 5892 5892 5892 5893 5893 5893 5893 5893 5893 5893
5871 5871 5870 5870 5870 5870 5871 5871 5871 5872 5872 5873 5874 5874 5875 5876 5877 5878 5879 5880 5881 5882 5883 5884 5885 5886 5887 5888 5889 5890 5890 5891 5891 5892 5892 5892 5892 5892 5892 5892 5892 5893 5893
5873 5872 5872 5872 5872 5872 5872 5872 5873 5873 5874 5874 5875 5875 5876 5877 5877 5878 5879 5880 5881 5882 5883 5884 5885 5886 5887 5888 5889 5889 5890 5891 5891 5892 5892 5892 5892 5892 5892 5892 5892 5892 5892
5875 5874 5873 5873 5873 5873 5873 5874 5874 5875 5875 5876 5876 5877 5877 5878 5878 5879 5880 5881 5882 5882 5883 5884 5885 5886 5887 5888 5889 5889 5890 5891 5891 5891 5892 5892 5892 5892 5892 5892 5891 5891 5891
5876 5876 5875 5875 5875 5875 5875 5875 5876 5876 5876 5877 5877 5878 5878 5879 5879 5879 5880 5881 5882 5883 5884 5885 5885 5886 5887 5888 5889 5889 5890 5890 5890 5891 5891 5891 5891 5891 5891 5891 5891 5891 5890
5878 5878 5877 5877 5877 5877 5877 5877 5877 5877 5878 5878 5879 5879 5879 5879 5880 5880 5880 5882 5883 5883 5884 5885 5885 5886 5887 5888 5888 5889 5890 5890 5890 5890 5890 5890 5890 5890 5890 5890 5890 5889 5889
5880 5880 5879 5879 5878 5878 5878 5878 5878 5879 5879 5879 5880 5880 5880 5880 5880 5881 5882 5883 5883 5884 5884 5885 5886 5886 5887 5888 5888 5889 5889 5890 5890 5890 5889 5889 5889 5889 5889 5889 5888 5888 5888
5882 5881 5881 5880 5880 5880 5880 5880 5880 5880 5880 5880 5880 5881 5881 5881 5881 5882 5882 5883 5884 5884 5885 5885 5886 5886 5887 5888 5888 5888 5888 5889 5889 5889 5888 5888 5888 5888 5888 5887 5887 5887 5886
5884 5883 5882 5882 5882 5881 5881 5881 5881 5881 5881 5881 5881 5881 5881 5882 5882 5883 5883 5884 5884 5884 5885 5885 5886 5886 5887 5887 5888 5888 5888 5888 5888 5888 5887 5887 5887 5887 5886 5886 5886 5885 5885
5886 5885 5884 5884 5884 5883 5883 5883 5883 5883 5883 5883 5883 5882 5882 5882 5883 5883 5884 5884 5884 5885 5885 5886 5886 5886 5887 5887 5887 5887 5887 5887 5887 5887 5887 5886 5886 5885 5885 5885 5884 5884 5883
5887 5886 5886 5885 5885 5885 5885 5885 5885 5884 5884 5884 5884 5883 5883 5883 5883 5884 5884 5884 5884 5885 5885 5886 5886 5886 5886 5886 5886 5886 5886 5886 5886 5886 5886 5885 5884 5884 5883 5883 5882 5882 5881
5889 5888 5887 5887 5887 5887 5887 5886 5886 5886 5885 5885 5885 5885 5884 5884 5884 5884 5884 5884 5885 5885 5885 5886 5886 5886 5885 5885 5885 5885 5885 5885 5885 5884 5884 5884 5883 5882 5882 5881 5880 5880 5879
5890 5889 5889 5889 5889 5888 5888 5888 5887 5887 5887 5886 5886 5885 5885 5885 5885 5884 5884 5884 5884 5885 5885 5885 5885 5885 5885 5884 5884 5884 5884 5884 5883 5883 5882 5882 5881 5880 5880 5879 5878 5877 5877
5892 5891 5891 5890 5890 5890 5889 5889 5888 5888 5887 5887 5886 5886 5886 5885 5885 5885 5885 5884 5884 5884 5884 5884 5884 5884 5883 5883 5883 5883 5883 5883 5882 5881 5881 5880 5879 5879 5878 5877 5876 5875 5874
5893 5892 5892 5891 5891 5890 5890 5889 5889 5888 5888 5887 5887 5886 5886 5885 5885 5884 5884 5884 5883 5883 5883 5883 5882 5882 5882 5882 5882 5882 5881 5881 5880 5880 5879 5878 5877 5876 5876 5875 5874 5873 5871
5894 5893 5892 5892 5891 5891 5890 5890 5889 5888 5888 5887 5887 5886 5885 5885 5884 5884 5883 5883 5882 5882 5881 5881 5881 5880 5880 5880 5880 5880 5880 5879 5879 5878 5877 5876 5875 5874 5873 5872 5871 5870 5869
5894 5894 5893 5892 5891 5891 5891 5890 5889 5888 5888 5887 5886 5885 5885 5884 5883 5883 5882 5882 5881 5880 5880 5880 5879 5879 5878 5878 5878 5877 5877 5877 5876 5875 5875 5874 5873 5872 5871 5869 5868 5867 5866
5894 5894 5893 5892 5892 5891 5890 5890 5889 5888 5887 5886 5886 5885 5884 5883 5882 5882 5881 5880 5879 5879 5879 5878 5878 5877 5877 5876 5876 5875 5875 5874 5873 5873 5872 5871 5870 5869 5868 5866 5865 5864 5862